TimeCDT,TemperatureF,Dew PointF,Humidity,Sea Level PressureIn,VisibilityMPH,Wind Direction,Wind SpeedMPH,Gust SpeedMPH,PrecipitationIn,Events,Conditions,WindDirDegrees,DateUTC
12:51 AM,75.9,63.0,64,30.05,10.0,SSW,5.8,-,N/A,,Scattered Clouds,200,2013-08-21 05:51:00
1:51 AM,73.9,63.0,68,30.04,10.0,South,4.6,-,N/A,,Partly Cloudy,190,2013-08-21 06:51:00
2:51 AM,73.0,63.0,71,30.04,10.0,SSW,3.5,-,N/A,,Partly Cloudy,200,2013-08-21 07:51:00
3:51 AM,72.0,64.0,76,30.03,8.0,South,4.6,-,N/A,,Partly Cloudy,180,2013-08-21 08:51:00
4:51 AM,71.1,64.0,78,30.04,8.0,South,4.6,-,N/A,,Partly Cloudy,190,2013-08-21 09:51:00
5:51 AM,70.0,64.0,81,30.06,7.0,SSW,4.6,-,N/A,,Partly Cloudy,200,2013-08-21 10:51:00
6:51 AM,70.0,64.0,81,30.06,10.0,SSW,5.8,-,N/A,,Partly Cloudy,200,2013-08-21 11:51:00
7:51 AM,73.9,64.0,71,30.07,10.0,SSW,6.9,-,N/A,,Partly Cloudy,210,2013-08-21 12:51:00
8:51 AM,77.0,64.0,64,30.07,10.0,SW,10.4,-,N/A,,Scattered Clouds,220,2013-08-21 13:51:00
9:51 AM,82.0,64.0,54,30.06,10.0,SSW,11.5,-,N/A,,Scattered Clouds,210,2013-08-21 14:51:00
10:51 AM,84.0,64.9,53,30.06,10.0,SW,11.5,-,N/A,,Partly Cloudy,220,2013-08-21 15:51:00
11:51 AM,87.1,63.0,44,30.05,10.0,SW,15.0,18.4,N/A,,Scattered Clouds,230,2013-08-21 16:51:00
12:51 PM,90.0,62.1,39,30.03,10.0,South,8.1,-,N/A,,Mostly Cloudy,190,2013-08-21 17:51:00
1:51 PM,90.0,62.1,39,30.02,10.0,SW,12.7,-,N/A,,Mostly Cloudy,220,2013-08-21 18:51:00
2:51 PM,90.0,62.1,39,30.00,10.0,WSW,11.5,18.4,N/A,,Scattered Clouds,250,2013-08-21 19:51:00
3:51 PM,89.6,60.8,38,29.99,10.0,SSW,11.5,21.9,N/A,,Scattered Clouds,200,2013-08-21 20:51:00
4:51 PM,90.0,62.1,39,29.97,10.0,SSW,12.7,-,N/A,,Scattered Clouds,210,2013-08-21 21:51:00
5:51 PM,89.1,62.1,40,29.96,10.0,WSW,15.0,-,N/A,,Scattered Clouds,240,2013-08-21 22:51:00
6:51 PM,87.1,63.0,44,29.95,10.0,SW,15.0,-,N/A,,Scattered Clouds,230,2013-08-21 23:51:00
7:51 PM,84.9,63.0,48,29.97,10.0,SW,11.5,-,N/A,,Mostly Cloudy,230,2013-08-22 00:51:00
8:51 PM,82.9,63.0,51,29.99,10.0,SW,10.4,-,N/A,,Mostly Cloudy,220,2013-08-22 01:51:00
9:51 PM,82.0,64.9,56,29.99,10.0,SSW,10.4,-,N/A,,Mostly Cloudy,210,2013-08-22 02:51:00
10:51 PM,78.1,66.9,68,30.01,7.0,WSW,11.5,-,0.02,Rain,Light Rain,240,2013-08-22 03:51:00
11:00 PM,77.0,68.0,74,30.04,5.0,SW,11.5,-,0.03,Rain-Thunderstorm,Light Thunderstorms and Rain,230,2013-08-22 04:00:00
11:51 PM,75.9,69.1,79,30.00,10.0,SW,3.5,-,0.03,,Overcast,220,2013-08-22 04:51:00